Powrót do katalogu

MIDAS 4 DEB

LostPO
NORAD 45467·DEBRIS·🇺🇸 United States

Wystrzelony Oct 21, 1961 z Vandenberg Space Force Base

Loading…

Następne Przeloty (najbliższe 24 godziny)

TLE

NieaktualneSource: Space-Track

Epoka: Apr 19, 2025, 15:11 UTC

1 45467U 61028M   25109.63283500 -.00000113  00000-0 -32453-1 0  9992
2 45467  95.8328 190.3350 0905562 151.7473 213.5700  8.70606683304323

Śledź MIDAS 4 DEB w czasie rzeczywistym z AllMySat

Download on the App Store